Regional Weather Roundup
Issued by NWS

Home | Current Version | Previous Version | Text Only | Print | Product List | Glossary On
Versions: 1 2 3 4 5 6 7 8 9 10 11 12 13 14 15 16 17 18 19 20 21 22 23 24 25 26 27 28 29 30 31 32 33 34 35 36 37 38 39 40 41 42 43 44 45 46 47 48 49 50
876
ASUS43 KTOP 260359
RWRKS

WEATHER ROUNDUP FOR KANSAS
NATIONAL WEATHER SERVICE GOODLAND KS
1100 PM CDT MON SEP 25 2017

NOTE:  "FAIR" INDICATES FEW OR NO CLOUDS BELOW 12,000 FEET WITH NO
SIGNIFICANT WEATHER AND/OR OBSTRUCTIONS TO VISIBILITY.

KSZ001>006-013>018-027>032-041>047-260500-
NORTHWEST KANSAS

CITY           SKY/WX    TMP DP  RH WIND       PRES   REMARKS
GOODLAND       CLOUDY    48  47  96 NE8       30.12R
HAYS           CLOUDY    54  52  93 N17       30.03S
HILL CITY      CLOUDY    52  51  97 N15       30.08R
RUSSELL        LGT RAIN  55  53  93 N20       30.01R FOG
$$

KSZ061>065-074>080-084>089-260500-
SOUTHWEST KANSAS

CITY           SKY/WX    TMP DP  RH WIND       PRES   REMARKS
DODGE CITY     CLOUDY    54  53  97 N13       30.06R FOG
ELKHART          N/A     51  53 100 N9          N/A
GARDEN CITY    CLOUDY    52  50  93 N15       30.08R
GREAT BEND     LGT RAIN  56  55  97 NW9       30.03R FOG
LIBERAL        LGT RAIN  54  54 100 N12       30.07R FOG
$$

KSZ066>073-081>083-090>101-260500-
SOUTHEAST KANSAS

CITY           SKY/WX    TMP DP  RH WIND       PRES   REMARKS
CHANUTE        CLOUDY    71  65  81 N8        29.95R
COFFEYVILLE    CLOUDY    70  67  90 NW7       29.93R
HUTCHINSON     CLOUDY    63  63 100 W3        29.95R
NEWTON         LGT RAIN  63  61  93 E6        29.97R
PARSONS        CLOUDY    71  65  81 N6        29.94R
WICHITA INTL   CLOUDY    64  64 100 NE7       29.94S
WICHITA JABRA  CLOUDY    64  64 100 N3        29.95R
WICHITA MCCONL LGT RAIN  64  61  88 NE7       29.94F
WINFIELD       CLOUDY    66  66 100 NE9       29.96R
$$

KSZ007>012-019>026-033>040-048>060-102>105-260500-
NORTHEAST KANSAS

CITY           SKY/WX    TMP DP  RH WIND       PRES   REMARKS
CONCORDIA      CLOUDY    58  58 100 NW10      29.99R
EMPORIA        LGT RAIN  65  64  97 CALM      29.95R
LAWRENCE       CLOUDY    66  66 100 N3        29.95S
MANHATTAN      LGT RAIN  66  65  96 CALM      29.95S
OLATHE IND     CLOUDY    66  64  93 N10       29.96S
OLATHE EXE     CLOUDY    68  64  87 N12       29.96S
SALINA         CLOUDY    65  62  90 NW9       29.97R
TOPEKA BILLARD CLOUDY    67  67 100 NE5       29.94F
TOPEKA FORBES  CLOUDY    68  67  96 E3        29.95F
$$




USA.gov is the U.S. government's official web portal to all federal, state and local government web resources and services.